Nancy Ochey FAFB, France

9:42 AM CET on December 13, 2017 (GMT +0100)
Ochey Air Base

Weather History for LFSO - December, 2012

Change the Weather History Date:

Saturday, December 22, 2012

  Actual Average Record
Temperature  
Mean Temperature 45 °F -  
Max Temperature 51 °F 37 °F 54 °F (2015)
Min Temperature 40 °F 30 °F 21 °F (1999)
Degree Days  
Heating Degree Days 20    
Moisture  
Dew Point 41 °F    
Average Humidity 93    
Maximum Humidity 100    
Minimum Humidity 83    
Precipitation  
Precipitation 0.39 in - - ()
Sea Level Pressure  
Sea Level Pressure 29.99 in    
Wind  
Wind Speed 11 mph ()    
Max Wind Speed 24 mph    
Max Gust Speed -    
Visibility 6.4 miles    
Events Rain    
Averages and records for this station are not official NWS values.
T = Trace of Precipitation, MM = Missing Value Source: Averaged Metar Reports

Daily Weather History Graph

Daily Weather History Graph

Search for Another Location

Airport or City:

Trip Planner

Search our weather history database for the weather conditions in past years. The results will help you decide how hot, cold, wet, or windy it might be!

Date:

Astronomy

Dec. 22, 2012 Rise Set
Actual Time 8:26 AM CET 4:43 PM CET
Civil Twilight 7:49 AM CET 5:20 PM CET
Nautical Twilight 7:09 AM CET 6:00 PM CET
Astronomical Twilight 6:30 AM CET 6:39 PM CET
Moon 1:08 PM CET (12/22) 2:39 AM CET (12/22)
Length of Visible Light 9h 31m
Length of Day
8h 17m
Waxing Gibbous, 71% of the Moon is Illuminated
Dec 22
Waxing Gibbous
Dec 28
Full
Jan 5
Last Quarter
Jan 11
New
Jan 19
First Quarter

Hourly Weather History & Observations

Time (CET) Temp. Windchill Dew Point Humidity Pressure Visibility Wind Dir Wind Speed Gust Speed Precip Events Conditions
12:00 AM 41.0 °F 36.4 °F 39.2 °F 93% 30.09 in 6.2 mi SSW 6.9 mph - N/A   Overcast
12:30 AM 41.0 °F 36.4 °F 39.2 °F 93% 30.09 in 6.2 mi SSW 6.9 mph - N/A   Overcast
1:00 AM 41 °F - 40 °F 95% 30.14 in 9 mi WSW 5.8 mph - -   Clear
1:00 AM 41.0 °F 37.1 °F 41.0 °F 100% 30.09 in 6.2 mi WSW 5.8 mph - N/A   Overcast
1:30 AM 41.0 °F 36.4 °F 41.0 °F 100% 30.09 in 6.2 mi SW 6.9 mph - N/A   Overcast
2:00 AM 41.0 °F 37.1 °F 41.0 °F 100% 30.09 in 6.2 mi SW 5.8 mph - N/A   Overcast
2:30 AM 41.0 °F 35.2 °F 41.0 °F 100% 30.09 in 6.2 mi SSW 9.2 mph - N/A   Overcast
3:00 AM 41.0 °F 36.4 °F 41.0 °F 100% 30.09 in 6.2 mi SSW 6.9 mph - N/A   Overcast
3:30 AM 42.8 °F 38.0 °F 41.0 °F 93% 30.12 in 6.2 mi SSW 8.1 mph - N/A   Overcast
4:00 AM 42.8 °F 37.5 °F 41.0 °F 93% 30.09 in 6.2 mi SSW 9.2 mph - N/A   Overcast
4:30 AM 42.8 °F 38.0 °F 41.0 °F 93% 30.09 in 5.6 mi SW 8.1 mph - N/A   Overcast
5:00 AM 42.8 °F 36.6 °F 41.0 °F 93% 30.09 in 5.0 mi SSW 11.5 mph - N/A   Overcast
5:30 AM 42.8 °F 36.6 °F 41.0 °F 93% 30.09 in 6.2 mi SSW 11.5 mph - N/A   Overcast
6:00 AM 42.8 °F 36.6 °F 41.0 °F 93% 30.09 in 6.2 mi SSW 11.5 mph - N/A   Overcast
6:30 AM 42.8 °F 36.6 °F 41.0 °F 93% 30.09 in 6.2 mi SSW 11.5 mph - N/A   Overcast
7:00 AM 42 °F - 40 °F 88% 30.14 in 18 mi SSW 12.7 mph - -   Clear
7:00 AM 41.0 °F 33.9 °F 39.2 °F 93% 30.09 in 6.2 mi SSW 12.7 mph - N/A   Overcast
7:30 AM 41.0 °F 35.2 °F 39.2 °F 93% 30.09 in 6.2 mi SSW 9.2 mph - N/A   Overcast
8:00 AM 41.0 °F 34.7 °F 39.2 °F 93% 30.09 in 6.2 mi SSW 10.4 mph - N/A   Overcast
8:30 AM 41.0 °F 36.4 °F 39.2 °F 93% 30.09 in 6.2 mi SSW 6.9 mph - N/A   Mostly Cloudy
9:00 AM 41.0 °F 35.8 °F 39.2 °F 93% 30.09 in 6.2 mi South 8.1 mph - N/A   Unknown
9:30 AM 41.0 °F 35.8 °F 39.2 °F 93% 30.09 in 6.2 mi South 8.1 mph - N/A   Mostly Cloudy
10:00 AM 41.0 °F 35.8 °F 39.2 °F 93% 30.09 in 6.2 mi South 8.1 mph - N/A   Mostly Cloudy
10:30 AM 42.8 °F 37.5 °F 39.2 °F 87% 30.06 in 6.2 mi South 9.2 mph - N/A   Mostly Cloudy
11:00 AM 42.8 °F 37.0 °F 39.2 °F 87% 30.09 in 6.2 mi South 10.4 mph - N/A   Overcast
11:30 AM 42.8 °F 36.6 °F 39.2 °F 87% 30.06 in 6.2 mi South 11.5 mph - N/A   Overcast
12:00 PM 42.8 °F 36.6 °F 39.2 °F 87% 30.04 in 6.2 mi South 11.5 mph - N/A Rain Light Rain
12:30 PM 42.8 °F 36.2 °F 39.2 °F 87% 30.04 in 6.2 mi South 12.7 mph - N/A Rain Light Rain
1:00 PM 43 °F - 40 °F 83% 30.05 in 18 mi South 15.0 mph - - Rain Light Rain
1:00 PM 42.8 °F 35.4 °F 39.2 °F 87% 30.01 in 6.2 mi South 15.0 mph - N/A Rain Light Rain
1:30 PM 42.8 °F 36.2 °F 39.2 °F 87% 29.98 in 6.2 mi South 12.7 mph - N/A Rain Light Rain
2:00 PM 41.0 °F 33.9 °F 39.2 °F 93% 29.98 in 5.0 mi South 12.7 mph - N/A Rain Light Rain
2:30 PM 41.0 °F 33.5 °F 39.2 °F 93% 29.95 in 6.2 mi South 13.8 mph - N/A Rain Light Rain
3:00 PM 41.0 °F 33.1 °F 39.2 °F 93% 29.92 in 5.6 mi South 15.0 mph - N/A Rain Light Rain
3:30 PM 41.0 °F 31.9 °F 39.2 °F 93% 29.92 in 5.6 mi South 19.6 mph - N/A Rain Light Rain
4:00 PM 42.8 °F 34.3 °F 39.2 °F 87% 29.89 in 4.3 mi South 19.6 mph - N/A Rain Light Rain
4:30 PM 42.8 °F 33.5 °F 41.0 °F 93% 29.89 in 5.6 mi South 23.0 mph - N/A Rain Light Rain
5:00 PM 42.8 °F 33.8 °F 41.0 °F 93% 29.86 in 6.2 mi South 21.9 mph - N/A Rain Light Rain
5:30 PM 42.8 °F 33.8 °F 41.0 °F 93% 29.86 in 5.0 mi SSW 21.9 mph - N/A Rain Light Rain
6:00 PM 42.8 °F 33.5 °F 41.0 °F 93% 29.86 in 5.0 mi SSW 23.0 mph - N/A Rain Light Rain
6:30 PM 42.8 °F 33.8 °F 41.0 °F 93% 29.83 in 5.6 mi SSW 21.9 mph - N/A Rain Light Rain
7:00 PM 44 °F - 42 °F 90% 29.87 in - SSW 24.2 mph - - Rain Light Rain
7:00 PM 44.6 °F 35.7 °F 42.8 °F 93% 29.83 in 6.2 mi SSW 24.2 mph - N/A Rain Light Rain
7:30 PM 44.6 °F 35.9 °F 42.8 °F 93% 29.83 in 6.2 mi SSW 23.0 mph - N/A Rain Light Rain
8:00 PM 44.6 °F 36.4 °F 42.8 °F 93% 29.83 in 5.6 mi SSW 20.7 mph - N/A Rain Light Rain
8:30 PM 44.6 °F 36.4 °F 44.6 °F 100% 29.83 in 5.0 mi SSW 20.7 mph - N/A Rain Light Rain
9:00 PM 46.4 °F 39.2 °F 44.6 °F 93% 29.83 in 6.2 mi SSW 18.4 mph - N/A Rain Light Rain
9:30 PM 46.4 °F 38.3 °F 44.6 °F 93% 29.83 in 5.0 mi SSW 23.0 mph - N/A Rain Light Rain
10:00 PM 46.4 °F 38.7 °F 46.4 °F 100% 29.83 in 4.3 mi SSW 20.7 mph - N/A Rain Light Rain
10:30 PM 48.2 °F - 46.4 °F 93% 29.83 in 4.3 mi SSW 19.6 mph - N/A   Light Drizzle
11:00 PM 50.0 °F - 48.2 °F 94% 29.86 in 6.2 mi SW 19.6 mph - N/A   Light Drizzle
11:30 PM 51.8 °F - 50.0 °F 94% 29.86 in 6.2 mi SW 16.1 mph - N/A   Light Drizzle